This is the latest recevied weather packets stored in our database for station/object AD8PA-13. If no packets are shown the sender has not sent any weather packets the latest 10 day(s).
| Time | Temp. | Humidity | Pressure | Rain* | Wind** | Luminosity | Snow |
|---|---|---|---|---|---|---|---|
| 1777677451 | 7.22° C | 63% | 1015.7 hPa | 0 mm | - | - | - |
| 1777676545 | 7.22° C | 65% | 1015.7 hPa | 0 mm | - | - | - |
| 1777675641 | 7.22° C | 63% | 1015.6 hPa | 0 mm | - | - | - |
| 1777674738 | 7.78° C | 61% | 1015.7 hPa | 0 mm | - | - | - |
| 1777673834 | 7.78° C | 65% | 1015.4 hPa | 0 mm | - | - | - |
| 1777672931 | 8.33° C | 56% | 1015.3 hPa | 0 mm | - | - | - |
| 1777672030 | 8.89° C | 56% | 1015 hPa | 0 mm | - | - | - |
| 1777671125 | 8.89° C | 53% | 1014.9 hPa | 0 mm | - | - | - |
| 1777670221 | 8.89° C | 54% | 1014.7 hPa | 0 mm | - | - | - |
| 1777669318 | 8.89° C | 55% | 1014.9 hPa | 0 mm | - | - | - |
| 1777668414 | 8.89° C | 56% | 1014.7 hPa | 0 mm | - | - | - |
| 1777667510 | 10° C | 54% | 1014.7 hPa | 0 mm | - | - | - |
| 1777666607 | 10° C | 58% | 1014.6 hPa | 0 mm | - | - | - |
| 1777665703 | 8.33° C | 54% | 1014.7 hPa | 0 mm | - | - | - |
| 1777664803 | 8.89° C | 57% | 1014.6 hPa | 0 mm | - | - | - |
| 1777663901 | 9.44° C | 55% | 1014.4 hPa | 0 mm | - | - | - |
| 1777662997 | 10.56° C | 52% | 1014.6 hPa | 0 mm | - | - | - |
| 1777662098 | 9.44° C | 53% | 1014.3 hPa | 0 mm | - | - | - |
| 1777661193 | 9.44° C | 53% | 1014.1 hPa | 0 mm | - | - | - |
| 1777660292 | 10° C | 51% | 1014 hPa | 0 mm | - | - | - |
| 1777659389 | 10° C | 50% | 1014.2 hPa | 0 mm | - | - | - |
| 1777658485 | 10° C | 50% | 1013.9 hPa | 0 mm | - | - | - |
| 1777657582 | 10° C | 55% | 1013.9 hPa | 0 mm | - | - | - |
| 1777656679 | 9.44° C | 54% | 1014 hPa | 0 mm | - | - | - |
| 1777655778 | 8.33° C | 61% | 1014.3 hPa | 0 mm | - | - | - |
* Rain latest hour (hover to see other rain measurements)
** Current wind speed in m/s (hover to see current wind gust speed)